Location: Unspecified
(57.6483°N, 3.3184°W)
Time: 19:35:50
(UTC+00:00)

ISS - Visible Passes

Search period start: 07 March 2021 00:00
Search period end: 17 March 2021 00:00
Orbit: 417 x 422 km, 51.6° (Epoch: 07 March)

Date Brightness Start Highest point End Pass type
(mag) Time Alt. Az. Time Alt. Az. Time Alt. Az.
07 Mar -1.4 03:58:45 17° SE 03:58:45 17° SE 03:59:48 10° ESE visible
07 Mar -2.0 05:31:43 15° SW 05:33:01 18° SSW 05:35:26 10° SSE visible
08 Mar -2.1 04:46:09 21° S 04:46:09 21° S 04:48:22 10° SE visible
09 Mar -1.2 04:00:40 13° SE 04:00:40 13° SE 04:01:12 10° SE visible
09 Mar -1.5 05:33:38 11° SW 05:34:23 12° SSW 05:35:38 10° S visible
10 Mar -1.5 04:48:15 13° S 04:48:15 13° S 04:49:08 10° S visible
